Wind_Speed
11 11 10 11 12 14 12 11 11 10 8 7 5 5 9 12 11 8 8 6 3 0 1 3 4 3 5 6 8 9 11 10 9 8 7 11 12 12 11 8 8 5 5
10 10 10 11 13 13 12 12 11 9 7 7 5 4 6 10 9 8 5 5 2 1 1 3 5 5 4 5 7 9 10 10 7 6 9 11 11 11 11 10 8 5 7
10 9 10 12 13 12 12 12 11 12 10 7 5 5 6 12 9 7 5 8 6 3 2 2 4 6 5 5 5 6 8 10 7 5 11 11 6 4 6 7 6 7 6
9 9 10 12 11 11 13 13 14 13 13 12 7 8 12 11 8 6 9 11 15 6 6 5 5 8 9 9 7 7 8 9 9 8 9 6 5 4 3 4 4 7 8
9 9 9 11 10 12 14 12 13 13 16 15 11 14 13 10 13 11 11 12 14 15 11 6 5 6 8 9 10 8 7 7 6 6 7 5 3 2 2 2 6 8 7
10 10 10 10 10 11 13 12 10 15 15 16 19 21 18 16 16 14 15 18 19 23 19 9 1 2 3 7 10 10 9 8 6 2 9 6 5 3 1 2 5 3 2
9 11 10 10 11 12 13 13 12 11 14 16 20 19 17 16 15 16 18 23 24 25 24 16 12 9 4 6 11 9 10 9 8 11 15 12 9 8 7 5 5 4 3
9 11 10 10 9 11 13 12 13 12 12 14 15 15 15 14 16 17 22 23 26 28 30 23 21 13 11 14 11 12 11 10 9 18 22 19 15 12 11 8 7 7 6
10 11 11 10 11 12 13 13 15 14 15 15 16 15 14 15 16 20 24 22 25 29 36 34 25 22 18 19 18 18 18 15 19 15 12 11 12 14 13 12 12 11 11
10 11 10 11 12 14 12 13 16 16 20 19 18 18 20 11 20 33 27 24 24 28 31 35 38 33 34 33 32 34 31 23 24 23 20 22 19 17 15 13 11 9 7
9 10 10 12 12 13 12 14 17 19 22 23 23 29 36 46 38 26 23 24 23 24 25 28 32 35 37 36 36 34 30 26 22 20 18 16 15 14 14 13 11 10 9
8 9 9 11 11 12 13 15 18 20 23 24 27 32 26 32 28 26 24 23 23 25 24 26 27 28 29 28 26 24 23 22 21 20 18 17 15 14 14 13 10 10 9
6 8 9 9 10 13 15 16 19 20 23 24 25 26 23 25 25 23 23 24 25 25 26 25 25 24 24 24 24 23 22 21 19 17 16 15 14 13 12 10 11 10 8
5 7 9 8 9 13 16 19 20 21 23 21 20 20 20 22 23 23 24 24 25 25 24 24 24 23 23 21 21 20 19 18 16 15 14 13 13 13 13 11 12 11 10
7 7 9 9 10 13 16 19 21 20 21 19 17 18 18 19 22 24 23 23 24 24 22 21 21 21 20 18 17 16 14 14 13 12 12 11 12 12 12 12 12 12 14
7 9 11 10 11 15 17 19 20 20 18 18 17 16 17 18 19 20 21 22 22 22 21 20 18 18 16 15 12 11 11 11 11 11 12 13 12 13 13 13 14 15 15
8 9 12 11 12 15 18 20 21 19 18 19 18 17 19 18 18 19 18 18 18 19 20 18 16 14 13 12 10 8 9 9 9 9 10 11 11 13 13 14 15 16 17
9 10 13 13 13 16 19 21 21 20 19 19 19 19 19 18 17 17 18 16 15 15 15 15 13 12 11 10 9 7 7 7 8 8 9 10 11 12 12 14 15 16 18
10 11 12 14 14 16 19 21 22 22 22 20 20 19 17 15 14 15 13 12 12 12 12 10 10 10 9 7 7 7 6 5 6 7 8 9 11 12 14 16 17 18 19
12 11 13 14 15 15 19 21 22 24 24 21 18 17 15 13 12 12 11 10 10 10 10 8 9 8 7 5 5 5 6 5 5 6 9 10 13 14 15 16 17 18 19
14 12 13 14 15 15 19 21 22 23 23 21 18 15 14 13 11 12 14 14 13 12 10 8 7 7 4 3 2 3 4 4 5 6 7 9 10 11 14 16 17 17 17
16 15 13 14 14 15 17 21 22 23 22 20 17 15 15 13 13 13 14 13 14 13 11 10 11 10 7 4 3 2 3 4 5 5 7 9 12 13 14 17 17 17 19
18 17 16 14 15 16 16 21 22 22 22 21 18 16 15 16 17 15 15 16 16 16 15 14 13 15 14 10 9 6 6 4 5 6 7 9 12 14 15 17 17 19 21
23 20 18 17 16 18 18 19 22 23 23 22 20 18 18 18 17 18 17 16 15 16 16 15 14 14 15 14 12 8 8 8 8 8 9 10 12 14 15 16 17 19 20
27 24 22 20 18 18 19 18 20 22 22 22 22 20 19 18 18 17 16 15 15 15 16 15 16 16 15 14 13 12 11 10 9 10 11 13 15 17 17 16 15 15 17
27 26 24 22 20 18 19 17 19 21 22 20 21 21 20 19 17 16 15 14 14 15 15 15 15 15 16 15 14 13 13 11 10 11 13 15 17 17 16 15 15 16 17
Wind_Direction
50 41 40 49 45 43 40 36 42 48 61 70 91 71 98 104 104 83 75 49 30 70 183 181 164 139 110 100 129 141 143 139 141 150 166 172 171 184 188 197 219 235 279
54 43 36 41 39 41 35 36 41 44 54 55 57 80 95 114 104 89 53 9 31 358 237 201 190 166 142 129 133 142 157 149 144 145 158 174 179 195 206 227 252 249 274
56 44 38 40 40 38 37 46 59 53 47 44 65 91 99 126 104 84 59 56 40 19 338 201 186 175 152 162 124 145 161 170 158 153 158 159 167 186 206 221 242 257 242
60 48 40 43 47 42 50 60 70 65 56 51 82 102 103 110 92 72 75 62 49 53 64 110 150 163 164 165 155 137 137 156 160 163 175 178 176 184 212 240 242 242 243
62 49 39 46 54 60 57 64 76 61 64 60 86 101 104 103 106 95 72 65 64 61 74 98 143 162 161 174 173 156 132 121 126 163 175 171 167 187 302 294 275 250 253
62 46 33 46 58 58 50 61 70 73 68 75 91 102 100 102 104 96 77 82 71 60 50 49 93 144 165 183 184 175 160 133 91 170 157 148 146 144 46 26 12 22 359
62 49 37 59 68 59 49 64 64 69 59 81 90 101 109 111 107 94 86 82 76 65 53 59 62 85 118 152 152 173 152 127 111 116 123 113 111 113 107 91 84 88 87
63 53 51 70 72 63 49 54 57 60 64 78 95 100 97 102 103 99 89 80 77 69 62 74 84 81 88 88 107 126 137 132 110 103 103 96 96 97 101 92 91 89 83
64 64 69 78 70 60 48 59 65 63 71 78 83 84 92 108 110 108 93 83 75 73 70 74 76 79 81 86 89 101 114 109 105 97 99 109 108 88 89 85 81 76 66
64 74 85 83 75 60 58 69 75 76 79 84 95 80 77 99 127 107 99 86 77 77 79 79 80 83 84 83 89 93 93 96 101 91 86 81 87 87 82 81 73 58 46
73 83 89 83 74 67 78 79 83 84 87 88 92 81 82 93 96 100 95 89 82 81 84 84 85 87 89 92 92 92 94 94 95 92 91 92 89 84 77 71 65 53 38
79 97 88 80 67 78 89 89 93 88 91 92 93 93 87 96 95 98 93 89 87 85 89 93 94 95 96 96 95 92 92 92 93 91 88 84 78 76 71 63 53 50 36
92 106 93 81 70 95 103 104 99 96 100 99 93 94 93 93 91 91 92 90 87 85 87 91 94 94 95 95 95 96 97 98 96 91 84 76 70 68 59 48 34 27 15
115 122 105 89 86 104 112 113 107 106 103 101 95 90 91 93 94 95 93 90 87 84 84 86 89 91 92 92 92 91 90 88 83 79 74 69 64 55 55 49 42 28 15
138 133 116 100 102 118 119 117 114 110 105 99 95 92 93 93 92 95 92 89 88 85 87 88 89 89 91 90 88 87 85 80 78 75 78 76 70 56 48 44 37 26 25
150 140 121 112 116 125 128 123 118 120 113 105 100 101 102 98 94 90 89 92 89 90 93 97 96 95 93 89 87 89 93 91 88 83 75 67 58 43 35 27 24 23 22
160 150 125 122 125 131 134 129 122 120 123 118 107 108 103 101 94 90 92 97 96 94 95 95 92 92 90 91 87 83 86 89 86 75 63 54 43 34 26 19 19 14 15
178 155 132 131 132 135 141 137 128 124 126 125 116 114 110 101 96 100 99 102 104 106 102 99 95 89 91 94 89 73 60 62 61 61 54 43 33 27 13 13 11 8 9
191 162 141 134 139 139 145 143 136 130 129 128 124 120 115 104 104 108 106 105 109 110 98 97 89 81 84 84 80 68 54 50 56 45 38 29 21 11 3 360 356 0 7
193 180 153 142 146 144 146 148 143 134 133 134 135 131 120 113 111 103 104 102 99 98 93 79 77 77 72 61 55 50 33 26 31 23 20 14 6 3 358 355 358 357 5
195 193 167 154 154 149 149 151 152 145 141 137 137 133 125 116 111 108 105 103 100 95 93 77 58 49 45 48 12 359 5 8 11 7 5 354 352 346 349 344 353 357 1
199 192 192 168 162 155 156 153 149 153 152 150 145 140 132 126 121 116 107 101 95 89 83 79 67 55 56 52 39 24 28 12 12 2 351 342 339 337 335 338 347 349 356
204 199 196 185 170 167 162 161 153 153 151 152 151 149 142 136 131 118 109 101 94 88 81 72 61 52 56 62 64 59 59 41 26 6 348 337 333 328 331 336 344 347 354
205 204 198 191 181 180 170 169 161 156 151 145 144 142 142 136 126 120 116 108 100 93 90 85 75 67 63 61 61 58 54 39 24 8 354 340 331 328 338 345 349 351 360
208 202 202 195 187 188 178 174 167 161 157 151 151 149 146 139 135 132 125 114 102 91 81 79 77 74 68 65 64 59 52 45 31 16 2 354 349 342 342 346 349 355 355
217 209 206 200 191 190 186 177 175 169 161 161 159 155 151 147 144 134 122 112 100 90 83 73 71 70 67 65 65 60 55 49 47 31 17 12 8 7 1 356 347 346 346
Height
5899 5898 5898 5897 5895 5894 5893 5893 5891 5890 5889 5888 5887 5886 5885 5885 5885 5884 5884 5883 5882 5882 5881 5881 5882 5882 5882 5882 5883 5883 5885 5885 5886 5888 5890 5892 5895 5897 5899 5900 5903 5904 5905
5900 5899 5898 5897 5896 5895 5895 5894 5892 5891 5890 5888 5887 5886 5885 5885 5886 5886 5885 5883 5881 5881 5880 5880 5881 5883 5883 5883 5883 5884 5886 5887 5887 5889 5891 5893 5895 5898 5900 5901 5903 5904 5906
5902 5901 5900 5899 5897 5897 5896 5894 5893 5892 5890 5888 5887 5886 5885 5886 5887 5886 5885 5883 5882 5880 5879 5880 5882 5884 5885 5885 5885 5886 5888 5889 5891 5892 5892 5895 5897 5899 5901 5902 5903 5904 5905
5903 5902 5902 5901 5899 5899 5898 5896 5895 5894 5891 5889 5887 5887 5888 5888 5888 5887 5886 5885 5883 5881 5880 5880 5881 5882 5884 5885 5887 5889 5890 5892 5893 5894 5896 5897 5899 5900 5901 5902 5902 5904 5905
5905 5905 5904 5902 5902 5901 5899 5897 5896 5895 5893 5890 5888 5889 5889 5889 5889 5889 5887 5887 5885 5883 5881 5881 5881 5882 5884 5885 5887 5888 5891 5894 5896 5896 5898 5900 5901 5902 5903 5903 5903 5904 5905
5907 5906 5906 5904 5904 5902 5901 5899 5898 5898 5895 5893 5891 5891 5892 5892 5891 5890 5890 5889 5887 5885 5884 5882 5882 5882 5884 5885 5886 5889 5892 5896 5897 5896 5900 5901 5902 5903 5903 5904 5903 5904 5905
5908 5907 5907 5906 5906 5904 5902 5901 5901 5899 5898 5896 5895 5894 5893 5893 5893 5894 5893 5893 5892 5890 5887 5884 5883 5883 5884 5884 5886 5889 5893 5897 5898 5898 5900 5902 5903 5904 5904 5904 5904 5904 5905
5909 5908 5908 5908 5907 5906 5904 5903 5903 5901 5899 5899 5897 5896 5897 5896 5896 5897 5898 5897 5896 5893 5890 5887 5886 5885 5884 5885 5887 5890 5894 5898 5900 5901 5902 5904 5906 5905 5905 5906 5906 5906 5906
5910 5910 5910 5910 5909 5908 5907 5906 5904 5903 5902 5900 5900 5899 5898 5898 5899 5901 5901 5900 5899 5897 5895 5892 5889 5888 5889 5890 5891 5892 5895 5899 5902 5904 5906 5907 5908 5908 5908 5908 5908 5907 5907
5912 5912 5912 5913 5912 5910 5909 5909 5907 5906 5904 5904 5904 5902 5901 5895 5901 5904 5905 5904 5904 5902 5900 5899 5897 5896 5895 5896 5898 5899 5901 5905 5907 5908 5910 5910 5911 5911 5911 5910 5909 5909 5908
5914 5914 5915 5915 5915 5913 5912 5911 5910 5909 5908 5908 5908 5907 5905 5902 5905 5907 5909 5908 5908 5907 5906 5905 5904 5904 5903 5904 5905 5907 5909 5910 5911 5912 5913 5913 5913 5913 5912 5911 5911 5910 5909
5916 5916 5917 5918 5917 5915 5915 5914 5913 5913 5912 5912 5912 5913 5911 5912 5912 5913 5913 5914 5913 5912 5912 5911 5910 5910 5910 5911 5912 5912 5913 5914 5914 5915 5916 5916 5915 5915 5914 5912 5912 5910 5909
5918 5918 5919 5920 5920 5918 5918 5916 5916 5916 5915 5916 5916 5918 5917 5916 5916 5916 5917 5917 5917 5916 5916 5916 5916 5915 5915 5916 5916 5916 5917 5917 5918 5918 5918 5917 5917 5916 5915 5913 5912 5911 5909
5920 5920 5921 5922 5922 5921 5921 5919 5919 5920 5919 5920 5921 5922 5921 5920 5920 5921 5921 5921 5921 5920 5920 5920 5920 5921 5921 5921 5922 5922 5921 5921 5921 5920 5920 5919 5918 5917 5915 5914 5912 5910 5908
5921 5921 5922 5924 5924 5924 5923 5923 5923 5923 5923 5924 5926 5926 5925 5925 5924 5924 5924 5924 5924 5924 5924 5925 5925 5925 5925 5925 5925 5925 5925 5924 5924 5923 5922 5921 5920 5919 5917 5915 5913 5910 5908
5923 5923 5923 5926 5926 5926 5926 5926 5926 5927 5927 5927 5929 5929 5929 5928 5927 5927 5928 5928 5928 5928 5928 5928 5928 5928 5929 5929 5929 5929 5928 5928 5926 5925 5924 5923 5922 5920 5918 5915 5913 5911 5907
5923 5925 5924 5927 5928 5928 5928 5928 5928 5929 5930 5931 5931 5932 5932 5932 5932 5931 5931 5931 5932 5932 5933 5932 5932 5932 5931 5931 5931 5931 5931 5930 5928 5927 5926 5924 5923 5921 5918 5916 5913 5909 5906
5924 5925 5925 5928 5930 5929 5930 5931 5931 5931 5933 5934 5934 5935 5936 5936 5935 5935 5935 5936 5936 5935 5935 5935 5935 5935 5935 5934 5933 5933 5932 5932 5931 5929 5927 5926 5923 5921 5918 5916 5913 5908 5905
5926 5926 5927 5928 5931 5931 5932 5932 5933 5933 5934 5936 5937 5938 5939 5939 5939 5939 5939 5939 5938 5938 5939 5938 5937 5937 5936 5935 5934 5934 5934 5932 5931 5929 5928 5926 5923 5921 5918 5915 5912 5909 5907
5926 5927 5928 5929 5932 5932 5933 5934 5935 5935 5936 5938 5939 5940 5941 5942 5942 5942 5942 5941 5941 5941 5941 5940 5939 5938 5937 5935 5935 5935 5934 5932 5931 5930 5929 5927 5924 5922 5919 5915 5913 5909 5906
5925 5927 5929 5929 5933 5933 5933 5935 5936 5937 5938 5939 5941 5942 5942 5943 5944 5944 5944 5944 5944 5943 5943 5941 5939 5939 5937 5935 5935 5936 5934 5932 5931 5930 5927 5926 5923 5920 5918 5913 5911 5908 5904
5924 5926 5929 5931 5933 5934 5935 5936 5936 5937 5939 5940 5942 5943 5943 5944 5945 5946 5946 5946 5945 5944 5943 5943 5942 5940 5938 5936 5936 5935 5934 5932 5931 5929 5928 5925 5923 5921 5917 5914 5910 5906 5902
5923 5925 5928 5932 5933 5935 5935 5936 5937 5938 5939 5941 5943 5945 5945 5946 5948 5948 5948 5948 5947 5946 5944 5943 5942 5940 5938 5936 5936 5934 5933 5932 5930 5929 5927 5924 5922 5919 5917 5913 5910 5905 5901
5919 5924 5927 5930 5932 5935 5935 5936 5937 5938 5940 5941 5943 5945 5947 5948 5949 5950 5951 5951 5950 5948 5946 5945 5944 5943 5940 5939 5937 5935 5934 5933 5932 5930 5927 5925 5922 5919 5916 5912 5908 5904 5900
5917 5922 5924 5928 5931 5934 5935 5937 5938 5939 5941 5941 5943 5945 5948 5948 5950 5951 5952 5952 5951 5950 5949 5947 5946 5945 5944 5942 5941 5939 5938 5936 5934 5931 5928 5925 5922 5918 5914 5910 5906 5901 5897
5917 5921 5924 5927 5928 5932 5934 5936 5939 5940 5941 5943 5944 5945 5947 5949 5950 5951 5951 5951 5951 5950 5950 5949 5948 5947 5946 5944 5943 5941 5939 5937 5935 5932 5929 5925 5921 5917 5914 5909 5905 5900 5895